Regional Weather Roundup
Issued by NWS

Home | Current Version | Previous Version | Graphics & Text | Print | Product List | Glossary On
Versions: 1 2 3 4 5 6 7 8 9 10 11 12 13 14 15 16 17 18 19 20 21 22 23 24 25 26 27 28 29 30 31 32 33 34 35 36 37 38 39 40 41 42 43 44 45 46 47 48 49 50
000
ASUS43 KBIS 231302
RWRND

NORTH DAKOTA REGIONAL WEATHER ROUNDUP
NATIONAL WEATHER SERVICE BISMARCK ND
700 AM CST MON JAN 23 2017

NOTE: "FAIR" INDICATES FEW OR NO CLOUDS BELOW 12,000 FEET WITH NO
SIGNIFICANT WEATHER AND/OR OBSTRUCTIONS TO VISIBILITY.


NDZ001>003-009>011-017-231400-
NORTHWEST NORTH DAKOTA

CITY           SKY/WX    TMP DP  RH WIND       PRES   REMARKS
WILLISTON      CLOUDY    27  23  85 N12       29.77S WCI  17
MINOT          CLOUDY    28  22  78 W8        29.75S WCI  20
MINOT AFB      CLOUDY    25  21  85 W9        29.75R WCI  16
$$

NDZ018>021-031>035-040>046-231400-
SOUTHWEST NORTH DAKOTA

CITY           SKY/WX    TMP DP  RH WIND       PRES   REMARKS
BISMARCK       CLOUDY    29  24  82 W5        29.81R
DICKINSON      CLOUDY    23  19  85 CALM      29.73F
GARRISON         N/A     28  22  78 NW7       29.76R
HETTINGER ARPT FOG       22  21  96 E5        29.76S VSB 1/2 WCI  16
$$

NDZ004>008-012>016-024-026-027-054-231400-
NORTHEAST NORTH DAKOTA

CITY           SKY/WX    TMP DP  RH WIND       PRES   REMARKS
GRAND FORKS    CLOUDY    32  26  78 W8        29.77S
GRND FRKS AFB  CLOUDY    31  25  77 NW8       29.77S
DEVILS LAKE    CLOUDY    27  22  81 W14       29.76S WCI  16
$$

NDZ022-023-025-028>030-036>039-047>053-231400-
SOUTHEAST NORTH DAKOTA

CITY           SKY/WX    TMP DP  RH WIND       PRES   REMARKS
FARGO          CLOUDY    35  28  75 W5        29.80F
JAMESTOWN      CLOUDY    29  25  85 W5        29.76F
$$




USA.gov is the U.S. government's official web portal to all federal, state and local government web resources and services.